Regional Weather Roundup
Issued by NWS

Home | Current Version | Previous Version | Text Only | Print | Product List | Glossary On
Versions: 1 2 3 4 5 6 7 8 9 10 11 12 13 14 15 16 17 18 19 20 21 22 23 24 25 26 27 28 29 30 31 32 33 34 35 36 37 38 39 40 41 42 43 44 45 46 47 48 49 50
000
ASUS42 KFFC 270503
RWRGA
WEATHER ROUNDUP FOR GEORGIA
NATIONAL WEATHER SERVICE PEACHTREE CITY GA
100 AM EDT FRI MAR 27 2015

NOTE: "FAIR" INDICATES FEW OR NO CLOUDS BELOW 12,000 FEET WITH NO
SIGNIFICANT WEATHER AND/OR OBSTRUCTIONS TO VISIBILITY.

* = USE WITH CAUTION. THE STATIONS MARKED WITH AN ASTERISK MAY NOT
REPORT WEATHER SUCH AS PRECIPITATION, FOG, OR THUNDER AND ARE NOT
QUALITY CONTROLLED BY NWS.

THE REMARK "TC" DENOTES TEMPERATURE READING IN DEGREES CELSIUS.

GAZ001>058-270600-
NORTH GEORGIA

CITY           SKY/WX    TMP DP  RH WIND       PRES   REMARKS
ATLANTA        CLOUDY    64  57  78 W12       29.78F
ATHENS         CLOUDY    64  58  80 SW6       29.75F
CHAMBLEE       LGT RAIN  57  55  93 NW14      29.79R
PEACHTREE CITY LGT RAIN  64  61  90 W8        29.79F FOG
ROME           CLOUDY    52  47  83 N7        29.85S
WEST ATLANTA   LGT RAIN  55  52  89 NW12G24   29.80R
GAINESVILLE    CLOUDY    62  54  74 W10       29.78S
CARTERSVILLE   LGT RAIN  51  48  89 CALM      29.84F


CITY           SKY/WX    TMP DP  RH WIND       PRES   REMARKS
DALTON*        RAIN      46  46 100 N12G17    29.86R
MARIETTA       LGT RAIN  54  54 100 NW9       29.80S
$$

GAZ059>098-102>109-270600-
CENTRAL GEORGIA

CITY           SKY/WX    TMP DP  RH WIND       PRES   REMARKS
AUGUSTA-BUSH   CLOUDY    65  58  78 SW12      29.76F
AUGUSTA-DANIEL CLOUDY    66  58  75 SW9       29.77F
COLUMBUS       LGT RAIN  65  62  90 CALM      29.78F
MACON          CLOUDY    64  60  87 SW6       29.78F


CITY           SKY/WX    TMP DP  RH WIND       PRES   REMARKS
LAGRANGE*      CLOUDY    65  64  95 W3        29.79R
SYLVANIA*      CLOUDY    64  64  99 SW6       29.81F
MILLEDGEVILLE* CLOUDY    64  63  94 CALM      29.77F
$$

GAZ099>101-110>166-270600-
SOUTH GEORGIA

CITY           SKY/WX    TMP DP  RH WIND       PRES   REMARKS
SAVANNAH       CLOUDY    66  63  90 S7        29.80F
VALDOSTA       CLOUDY    63  62  97 CALM      29.85F
ALMA           CLOUDY    65  62  90 SW7       29.83F
ST SIMONS      MOCLDY    66  64  93 SW16      29.84S
FT STEWART     CLOUDY    66  64  94 SW6       29.80S
ALBANY         CLOUDY    63  61  93 SW3       29.83F
HUNTER AFB     CLOUDY    64  64 100 S6        29.79F
BRUNSWICK      CLOUDY    68  64  88 SW14      29.84S


CITY           SKY/WX    TMP DP  RH WIND       PRES   REMARKS
BAINBRIDGE*    CLOUDY    64  63  94 CALM      29.81F
MOULTRIE*      CLOUDY    63 N/A N/A S5        29.84F
VIDALIA*       CLOUDY    63  63 100 SW6       29.82F
WAYCROSS*      CLOUDY    67  66  96 W10       29.84F
DOUGLAS*       CLOUDY    64  63  94 SW6       29.86F
$$


USA.gov is the U.S. government's official web portal to all federal, state and local government web resources and services.